When you browse on this site, cookies collect data to enhance your experience and personalize the content and advertising you see.
Visit our Privacy Policy to learn more. By continuing to use the site, you agree to this use of cookies and data.
  • în România
  • Lista ţărilor
  • Pe 7 zile
  • Temperatura apei
  • Meteo pe hartă
  • Widget-uri
  • user-avatar
    Intrare

    Meteo pe oră la Formby

    Astăzi, 16 Octombrie, Miercuri

    Timp Temperatura Precipitaţii Vânt Presiune Umiditate
    00:00 +10°C° 0 mm 6 m/s 749 mmHg 84%
    01:00 +10°C° 0.3 mm 7 m/s 749 mmHg 86%
    02:00 +10°C° 0.3 mm 7 m/s 748 mmHg 89%
    03:00 +10°C° 0.3 mm 8 m/s 747 mmHg 91%
    04:00 +11°C° 0.3 mm 8 m/s 747 mmHg 91%
    05:00 +11°C° 0.3 mm 7 m/s 747 mmHg 91%
    06:00 +11°C° 0 mm 7 m/s 747 mmHg 91%
    07:00 +11°C° 0.1 mm 7 m/s 747 mmHg 87%
    08:00 +11°C° 0.1 mm 7 m/s 748 mmHg 83%
    09:00 +11°C° 0.1 mm 8 m/s 748 mmHg 78%
    10:00 +11°C° 0 mm 7 m/s 748 mmHg 75%
    11:00 +12°C° 0 mm 7 m/s 749 mmHg 72%
    12:00 +12°C° 0 mm 7 m/s 750 mmHg 68%
    13:00 +13°C° 0 mm 6 m/s 750 mmHg 68%
    14:00 +13°C° 0 mm 6 m/s 750 mmHg 67%
    15:00 +13°C° 0 mm 5 m/s 750 mmHg 67%
    16:00 +12°C° 0 mm 5 m/s 751 mmHg 71%
    17:00 +11°C° 0 mm 4 m/s 751 mmHg 74%
    18:00 +10°C° 0 mm 4 m/s 751 mmHg 78%
    19:00 +8°C° 0 mm 4 m/s 752 mmHg 79%
    20:00 +8°C° 0 mm 4 m/s 752 mmHg 80%
    21:00 +8°C° 0 mm 4 m/s 752 mmHg 81%
    22:00 +8°C° 0 mm 4 m/s 752 mmHg 83%
    23:00 +7°C° 0 mm 4 m/s 752 mmHg 84%

    Mâine, 17 Octombrie, Joi

    Timp Temperatura Precipitaţii Vânt Presiune Umiditate
    00:00 +7°C° 0 mm 4 m/s 753 mmHg 85%
    01:00 +7°C° 0 mm 4 m/s 752 mmHg 86%
    02:00 +7°C° 0 mm 4 m/s 752 mmHg 86%
    03:00 +6°C° 0 mm 4 m/s 752 mmHg 87%
    04:00 +6°C° 0 mm 5 m/s 752 mmHg 87%
    05:00 +6°C° 0 mm 5 m/s 752 mmHg 87%
    06:00 +6°C° 0 mm 5 m/s 752 mmHg 88%
    07:00 +7°C° 0.1 mm 5 m/s 752 mmHg 85%
    08:00 +8°C° 0.1 mm 6 m/s 751 mmHg 83%
    09:00 +9°C° 0.1 mm 6 m/s 751 mmHg 81%
    10:00 +10°C° 0 mm 6 m/s 751 mmHg 76%
    11:00 +11°C° 0 mm 7 m/s 751 mmHg 72%
    12:00 +12°C° 0 mm 7 m/s 750 mmHg 68%
    13:00 +12°C° 0.1 mm 7 m/s 750 mmHg 68%
    14:00 +12°C° 0.1 mm 7 m/s 749 mmHg 69%
    15:00 +13°C° 0.1 mm 6 m/s 749 mmHg 69%
    16:00 +11°C° 0.7 mm 6 m/s 749 mmHg 73%
    17:00 +10°C° 0.7 mm 5 m/s 749 mmHg 76%
    18:00 +10°C° 0.7 mm 5 m/s 749 mmHg 80%
    19:00 +9°C° 0.2 mm 5 m/s 749 mmHg 81%
    20:00 +9°C° 0.2 mm 5 m/s 749 mmHg 83%
    21:00 +9°C° 0.2 mm 5 m/s 749 mmHg 84%
    22:00 +9°C° 0.2 mm 5 m/s 749 mmHg 85%
    23:00 +8°C° 0.2 mm 5 m/s 748 mmHg 85%

    Poimâine, 18 Octombrie, Vineri

    Timp Temperatura Precipitaţii Vânt Presiune Umiditate
    00:00 +8°C° 0.2 mm 5 m/s 748 mmHg 86%
    01:00 +8°C° 0.2 mm 4 m/s 748 mmHg 87%
    02:00 +8°C° 0.2 mm 4 m/s 747 mmHg 87%
    03:00 +8°C° 0.2 mm 4 m/s 747 mmHg 87%
    04:00 +8°C° 0.2 mm 4 m/s 747 mmHg 88%
    05:00 +8°C° 0.2 mm 4 m/s 747 mmHg 88%
    06:00 +7°C° 0.2 mm 4 m/s 747 mmHg 88%
    07:00 +8°C° 0.1 mm 4 m/s 747 mmHg 86%
    08:00 +8°C° 0.1 mm 4 m/s 747 mmHg 84%
    09:00 +10°C° 0.1 mm 4 m/s 747 mmHg 81%
    10:00 +9°C° 0.8 mm 5 m/s 747 mmHg 81%
    11:00 +9°C° 0.8 mm 5 m/s 747 mmHg 82%
    12:00 +9°C° 0.8 mm 6 m/s 747 mmHg 82%
    13:00 +10°C° 0.6 mm 6 m/s 747 mmHg 80%
    14:00 +10°C° 0.6 mm 6 m/s 747 mmHg 77%
    15:00 +11°C° 0.6 mm 6 m/s 746 mmHg 75%
    16:00 +10°C° 0.5 mm 6 m/s 746 mmHg 78%
    17:00 +9°C° 0.5 mm 5 m/s 746 mmHg 80%
    18:00 +9°C° 0.5 mm 5 m/s 746 mmHg 83%
    19:00 +8°C° 0.6 mm 5 m/s 746 mmHg 83%
    20:00 +8°C° 0.6 mm 5 m/s 747 mmHg 84%
    21:00 +8°C° 0.6 mm 5 m/s 747 mmHg 84%
    22:00 +8°C° 0.1 mm 5 m/s 747 mmHg 85%
    23:00 +8°C° 0.1 mm 5 m/s 746 mmHg 85%

    19 Octombrie, Sâmbătă

    Timp Temperatura Precipitaţii Vânt Presiune Umiditate
    00:00 +8°C° 0.1 mm 5 m/s 746 mmHg 86%
    01:00 +7°C° 0.2 mm 5 m/s 746 mmHg 87%
    02:00 +7°C° 0.2 mm 5 m/s 746 mmHg 89%
    03:00 +7°C° 0.2 mm 5 m/s 746 mmHg 90%
    04:00 +7°C° 0.3 mm 5 m/s 746 mmHg 90%
    05:00 +7°C° 0.3 mm 5 m/s 746 mmHg 90%
    06:00 +7°C° 0.3 mm 5 m/s 746 mmHg 91%
    07:00 +7°C° 0.1 mm 5 m/s 746 mmHg 90%
    08:00 +8°C° 0.1 mm 5 m/s 746 mmHg 89%
    09:00 +8°C° 0.1 mm 4 m/s 746 mmHg 88%
    10:00 +8°C° 0.2 mm 4 m/s 746 mmHg 88%
    11:00 +10°C° 0.2 mm 4 m/s 747 mmHg 88%
    12:00 +10°C° 0.2 mm 4 m/s 747 mmHg 88%
    13:00 +10°C° 0.5 mm 4 m/s 747 mmHg 86%
    14:00 +10°C° 0.5 mm 4 m/s 747 mmHg 85%
    15:00 +11°C° 0.5 mm 4 m/s 747 mmHg 83%
    16:00 +10°C° 0.3 mm 3 m/s 748 mmHg 85%
    17:00 +9°C° 0.3 mm 3 m/s 749 mmHg 86%
    18:00 +9°C° 0.3 mm 3 m/s 749 mmHg 87%
    19:00 +9°C° 0 mm 3 m/s 750 mmHg 87%
    20:00 +8°C° 0 mm 3 m/s 750 mmHg 88%
    21:00 +8°C° 0 mm 3 m/s 751 mmHg 88%
    22:00 +8°C° 0 mm 3 m/s 751 mmHg 89%
    23:00 +8°C° 0 mm 3 m/s 752 mmHg 89%

    20 Octombrie, Duminică

    Timp Temperatura Precipitaţii Vânt Presiune Umiditate
    00:00 +7°C° 0 mm 3 m/s 752 mmHg 89%
    01:00 +7°C° 0 mm 3 m/s 752 mmHg 90%
    02:00 +7°C° 0 mm 3 m/s 753 mmHg 90%
    03:00 +7°C° 0 mm 3 m/s 753 mmHg 90%
    04:00 +7°C° 0 mm 2 m/s 753 mmHg 90%
    05:00 +7°C° 0 mm 2 m/s 754 mmHg 89%
    06:00 +8°C° 0 mm 1 m/s 754 mmHg 89%
    07:00 +8°C° 0.3 mm 1 m/s 755 mmHg 88%
    08:00 +9°C° 0.3 mm 1 m/s 755 mmHg 86%
    09:00 +9°C° 0.3 mm 1 m/s 756 mmHg 85%
    10:00 +10°C° 0.2 mm 1 m/s 756 mmHg 82%
    11:00 +11°C° 0.2 mm 1 m/s 757 mmHg 78%
    12:00 +12°C° 0.2 mm 1 m/s 757 mmHg 75%
    13:00 +12°C° 0 mm 1 m/s 757 mmHg 74%
    14:00 +12°C° 0 mm 2 m/s 758 mmHg 73%
    15:00 +13°C° 0 mm 2 m/s 758 mmHg 72%
    16:00 +12°C° 0 mm 2 m/s 759 mmHg 76%
    17:00 +10°C° 0 mm 2 m/s 759 mmHg 80%
    18:00 +9°C° 0 mm 2 m/s 760 mmHg 84%
    19:00 +9°C° 0 mm 2 m/s 761 mmHg 85%
    20:00 +9°C° 0 mm 2 m/s 761 mmHg 85%
    21:00 +8°C° 0 mm 2 m/s 762 mmHg 86%
    22:00 +8°C° 0 mm 2 m/s 762 mmHg 86%
    23:00 +8°C° 0 mm 2 m/s 762 mmHg 86%

    21 Octombrie, Luni

    Timp Temperatura Precipitaţii Vânt Presiune Umiditate
    00:00 +8°C° 0 mm 2 m/s 763 mmHg 86%
    01:00 +8°C° 0 mm 2 m/s 763 mmHg 86%
    02:00 +8°C° 0 mm 3 m/s 763 mmHg 86%
    03:00 +8°C° 0 mm 3 m/s 763 mmHg 86%
    04:00 +8°C° 0 mm 3 m/s 764 mmHg 86%
    05:00 +8°C° 0 mm 3 m/s 764 mmHg 85%
    06:00 +8°C° 0 mm 3 m/s 765 mmHg 85%
    07:00 +8°C° 0 mm 3 m/s 765 mmHg 83%
    08:00 +9°C° 0 mm 3 m/s 765 mmHg 81%
    09:00 +10°C° 0 mm 3 m/s 766 mmHg 79%
    10:00 +11°C° 0 mm 3 m/s 766 mmHg 76%
    11:00 +11°C° 0 mm 3 m/s 766 mmHg 73%
    12:00 +12°C° 0 mm 3 m/s 766 mmHg 70%
    13:00 +12°C° 0 mm 3 m/s 766 mmHg 71%
    14:00 +12°C° 0 mm 3 m/s 766 mmHg 71%
    15:00 +12°C° 0 mm 3 m/s 767 mmHg 72%
    16:00 +11°C° 0 mm 3 m/s 767 mmHg 76%
    17:00 +10°C° 0 mm 3 m/s 767 mmHg 80%
    18:00 +9°C° 0 mm 2 m/s 767 mmHg 84%
    19:00 +9°C° 0 mm 2 m/s 767 mmHg 85%
    20:00 +9°C° 0 mm 2 m/s 767 mmHg 86%
    21:00 +8°C° 0 mm 2 m/s 768 mmHg 87%
    22:00 +8°C° 0 mm 2 m/s 768 mmHg 88%
    23:00 +8°C° 0 mm 2 m/s 767 mmHg 88%
    Arată mai mult